This is the latest recevied weather packets stored in our database for station/object W4NDF-13. If no packets are shown the sender has not sent any weather packets the latest 10 day(s).
| Time | Temp. | Humidity | Pressure | Rain* | Wind** | Luminosity | Snow |
|---|---|---|---|---|---|---|---|
| 1777982311 | 20° C | 85% | 1013.2 hPa | 0 mm | - | 42 W/m² | - |
| 1777982008 | 20° C | 86% | 1013.3 hPa | 0 mm | - | 33 W/m² | - |
| 1777981706 | 19.44° C | 87% | 1013.6 hPa | 0 mm | - | 27 W/m² | - |
| 1777981402 | 19.44° C | 87% | 1013.4 hPa | 0 mm | - | 22 W/m² | - |
| 1777981099 | 19.44° C | 87% | 1013.5 hPa | 0 mm | - | 18 W/m² | - |
| 1777980795 | 19.44° C | 87% | 1013.5 hPa | 0 mm | - | 13 W/m² | - |
| 1777980491 | 19.44° C | 87% | 1013.6 hPa | 0 mm | - | 9 W/m² | - |
| 1777980189 | 18.89° C | 88% | 1013.5 hPa | 0 mm | - | 5 W/m² | - |
| 1777979884 | 18.89° C | 88% | 1013.5 hPa | 0 mm | - | 3 W/m² | - |
| 1777979580 | 18.89° C | 88% | 1013.4 hPa | 0 mm | - | 1 W/m² | - |
| 1777979276 | 18.89° C | 89% | 1013.5 hPa | 0 mm | - | 1 W/m² | - |
| 1777978974 | 18.89° C | 89% | 1013.5 hPa | 0 mm | - | 0 W/m² | - |
| 1777978670 | 18.89° C | 89% | 1013.5 hPa | 0 mm | - | 0 W/m² | - |
| 1777978365 | 18.89° C | 89% | 1013.5 hPa | 0 mm | - | 0 W/m² | - |
| 1777978062 | 18.33° C | 89% | 1013.4 hPa | 0 mm | - | 0 W/m² | - |
| 1777977760 | 18.33° C | 89% | 1013.5 hPa | 0 mm | - | 0 W/m² | - |
| 1777977456 | 18.33° C | 89% | 1013.6 hPa | 0 mm | - | 0 W/m² | - |
| 1777977154 | 18.33° C | 89% | 1013.4 hPa | 0 mm | - | 0 W/m² | - |
| 1777976851 | 18.33° C | 88% | 1013.7 hPa | 0 mm | - | 0 W/m² | - |
| 1777976549 | 18.33° C | 88% | 1013.6 hPa | 0 mm | - | 0 W/m² | - |
| 1777976248 | 18.33° C | 88% | 1013.6 hPa | 0 mm | - | 0 W/m² | - |
| 1777975943 | 18.33° C | 88% | 1013.8 hPa | 0 mm | - | 0 W/m² | - |
| 1777975640 | 17.78° C | 89% | 1013.5 hPa | 0 mm | - | 0 W/m² | - |
| 1777975337 | 17.78° C | 89% | 1013.6 hPa | 0 mm | - | 0 W/m² | - |
| 1777975032 | 17.78° C | 88% | 1013.7 hPa | 0 mm | - | 0 W/m² | - |
* Rain latest hour (hover to see other rain measurements)
** Current wind speed in m/s (hover to see current wind gust speed)